GW4332 Weather Reports


time (UTC)temp
C
wind
direction
speed
KPH
gust
KPH
rain 1hr
cm
rain 24hr
cm
rain mn
cm
humidity
%
barometer
mb
20260503005030 13 99 3.2 12.9 0.00 0.00 0.33 89 1011.7
20260503004029 13 111 1.6 14.5 0.00 0.00 0.33 89 1011.8
20260503003029 13 96 6.4 20.9 0.00 0.00 0.33 89 1011.7
20260503002030 13 91 8.0 14.5 0.00 0.00 0.33 89 1011.7
20260503001029 13 89 8.0 16.1 0.00 0.00 0.33 88 1011.9
20260503000030 13 70 11.3 17.7 0.00 0.00 0.33 88 1012.0
20260502235029 13 63 11.3 20.9 0.00 0.00 0.33 88 1012.4
20260502234030 13 74 9.7 20.9 0.00 0.00 0.28 87 1013.0
20260502233030 14 59 1.6 4.8 0.00 0.00 0.23 86 1013.7
20260502232030 14 59 0.0 3.2 0.00 0.00 0.20 86 1014.0
20260502231030 13 288 1.6 11.3 0.00 0.00 0.15 85 1014.1
20260502230029 13 192 3.2 20.9 0.00 0.00 0.13 84 1014.4
20260502225030 14 214 12.9 24.1 0.00 0.00 0.08 82 1014.8
20260502224029 14 219 16.1 33.8 0.00 0.00 0.03 81 1014.9
20260502223030 15 292 12.9 17.7 0.00 0.00 0.00 80 1013.8
20260502222029 15 233 0.0 12.9 0.00 0.00 0.00 78 1013.9
20260502221030 15 99 4.8 16.1 0.00 0.00 0.00 78 1013.6
20260502220029 15 131 1.6 17.7 0.00 0.00 0.00 78 1013.6
20260502215030 15 140 3.2 17.7 0.00 0.00 0.00 79 1013.6
20260502214030 15 89 4.8 14.5 0.00 0.00 0.00 80 1013.9
20260502213029 14 92 6.4 14.5 0.00 0.00 0.00 81 1013.3
20260502212030 14 83 9.7 17.7 0.00 0.00 0.00 81 1013.3
20260502211030 15 82 6.4 11.3 0.00 0.00 0.00 81 1013.5
20260502210030 15 78 4.8 11.3 0.00 0.00 0.00 81 1013.5
20260502205029 15 68 4.8 12.9 0.00 0.00 0.00 80 1013.7
20260502204030 15 51 4.8 9.7 0.00 0.00 0.00 80 1013.8
20260502203030 15 41 6.4 11.3 0.00 0.00 0.00 80 1014.0
20260502202029 15 54 4.8 11.3 0.00 0.00 0.00 80 1014.2
20260502201030 15 37 8.0 14.5 0.00 0.00 0.00 80 1014.3
20260502200029 15 35 8.0 16.1 0.00 0.00 0.00 80 1014.4
20260502195030 15 57 6.4 12.9 0.00 0.00 0.00 81 1014.5
20260502194030 15 38 9.7 16.1 0.00 0.00 0.00 80 1014.5
20260502193030 16 42 8.0 14.5 0.00 0.00 0.00 80 1014.6
20260502192029 16 42 9.7 16.1 0.00 0.00 0.00 78 1014.5
20260502191029 16 38 8.0 14.5 0.00 0.00 0.00 76 1014.4
20260502190030 16 45 9.7 19.3 0.00 0.00 0.00 73 1014.3
20260502185030 17 33 8.0 16.1 0.00 0.00 0.00 68 1014.3
20260502184029 17 1 4.8 9.7 0.00 0.00 0.00 67 1014.4
20260502183029 17 316 8.0 12.9 0.00 0.00 0.00 68 1014.3
20260502182030 17 316 8.0 9.7 0.00 0.00 0.00 67 1014.3
20260502181029 17 315 8.0 14.5 0.00 0.00 0.00 66 1014.4
20260502164029 17 301 12.9 16.1 0.00 0.00 0.00 68 1015.3
20260502163030 17 298 14.5 17.7 0.00 0.00 0.00 68 1015.3
20260502162030 17 297 12.9 17.7 0.00 0.00 0.00 68 1015.4
20260502161029 17 300 12.9 16.1 0.00 0.00 0.00 70 1015.4
20260502152030 17 304 11.3 16.1 0.00 0.00 0.00 75 1015.7
20260502151029 17 299 14.5 17.7 0.00 0.00 0.00 76 1015.8
20260502123029 17 251 17.7 20.9 0.00 0.00 0.00 78 1016.9
20260502122030 17 252 17.7 24.1 0.00 0.00 0.00 78 1016.9
20260502121030 17 245 19.3 22.5 0.00 0.00 0.00 77 1016.9
20260502115030 17 258 19.3 22.5 0.00 0.00 0.00 74 1017.1
20260502114030 18 254 16.1 20.9 0.00 0.00 0.00 74 1017.1
20260502113029 18 257 16.1 20.9 0.00 0.00 0.00 74 1017.2
20260502112030 18 257 17.7 20.9 0.00 0.00 0.00 74 1017.3
20260502111029 17 248 16.1 19.3 0.00 0.00 0.00 74 1017.3
20260502110030 17 255 16.1 19.3 0.00 0.00 0.00 73 1017.3
20260502105029 17 250 14.5 19.3 0.00 0.00 0.00 73 1017.4
20260502104030 17 250 16.1 20.9 0.00 0.00 0.00 72 1017.5
20260502103029 17 249 16.1 19.3 0.00 0.00 0.00 71 1017.5
20260502102030 17 240 14.5 17.7 0.00 0.00 0.00 69 1017.6
20260502101029 17 234 16.1 22.5 0.00 0.00 0.00 68 1017.6
20260502091030 16 81 1.6 4.8 0.00 0.00 0.00 62 1017.3
20260502071029 15 188 3.2 9.7 0.00 0.00 0.00 55 1017.8
20260502070030 14 190 4.8 9.7 0.00 0.00 0.00 55 1017.8
20260502065030 15 174 3.2 11.3 0.00 0.00 0.00 55 1017.8
20260502064029 15 200 3.2 8.0 0.00 0.00 0.00 53 1017.8
20260502063030 15 153 3.2 14.5 0.00 0.00 0.00 52 1017.8
20260502062030 15 159 3.2 8.0 0.00 0.00 0.00 52 1017.8
20260502061029 15 129 3.2 11.3 0.00 0.00 0.00 51 1017.6
20260502060030 15 109 4.8 11.3 0.00 0.00 0.00 52 1017.4
20260502055030 13 112 3.2 9.7 0.00 0.00 0.00 54 1017.4
20260502054029 13 121 3.2 9.7 0.00 0.00 0.00 55 1017.6
20260502053030 13 112 3.2 12.9 0.00 0.00 0.00 55 1017.6
20260502052030 12 118 3.2 11.3 0.00 0.00 0.00 56 1017.6
20260502051029 12 112 3.2 11.3 0.00 0.00 0.00 56 1017.5
20260502050030 12 109 4.8 14.5 0.00 0.00 0.00 57 1017.5
20260502045030 12 119 3.2 12.9 0.00 0.00 0.00 57 1017.4
20260502044029 12 130 3.2 12.9 0.00 0.00 0.00 58 1017.4
20260502043029 11 119 3.2 11.3 0.00 0.00 0.00 58 1017.5
20260502042030 11 88 4.8 12.9 0.00 0.00 0.00 57 1017.5
20260502041029 12 121 4.8 12.9 0.00 0.00 0.00 57 1017.6
20260502040030 12 105 4.8 14.5 0.00 0.00 0.00 56 1017.6
20260502035029 12 123 1.6 8.0 0.00 0.00 0.00 56 1017.6
20260502034029 12 105 3.2 11.3 0.00 0.00 0.00 56 1017.8
20260502033030 12 93 6.4 14.5 0.00 0.00 0.00 56 1017.9
20260502032030 12 104 6.4 16.1 0.00 0.00 0.00 55 1017.8
20260502031030 12 91 6.4 14.5 0.00 0.00 0.00 55 1017.9
20260502030029 12 105 6.4 16.1 0.00 0.00 0.00 55 1018.0
20260502025030 12 113 6.4 14.5 0.00 0.00 0.00 54 1018.1
20260502024030 12 96 6.4 14.5 0.00 0.00 0.00 54 1018.1
20260502023029 13 86 6.4 14.5 0.00 0.00 0.00 53 1018.1
20260502022029 13 96 8.0 14.5 0.00 0.00 0.00 53 1018.2
20260502021030 13 103 8.0 16.1 0.00 0.00 0.00 53 1018.2
20260502020030 13 99 6.4 16.1 0.00 0.00 0.00 52 1018.3
20260502015029 13 112 4.8 12.9 0.00 0.00 0.00 51 1018.3
20260502014029 13 93 6.4 12.9 0.00 0.00 0.00 51 1018.4
20260502013030 13 116 6.4 12.9 0.00 0.00 0.00 50 1018.5
20260502012030 14 91 6.4 14.5 0.00 0.00 0.00 49 1018.6
20260502011029 14 111 4.8 16.1 0.00 0.00 0.00 49 1018.7
20260502010029 14 115 4.8 12.9 0.00 0.00 0.00 48 1018.9